sat.trackr.live / text

‹ back to catalog

QIANFAN-15

NORAD 60393 · 2024-140Q

PAYLOAD ACTIVE UNKNOWN

§ Identity

Operator
Country
PRC
Launch date
2024-08-06
Launch site
TAISC
Launch vehicle
Mass (kg)
RCS (m²)

External: N2YO · Heavens-Above · Gunter

§ Orbital elements

Epoch: 2026-09-22T22:18:49.853952Z

Period
106.59 min
Inclination
88.9662°
Eccentricity
0.0014576
Mean motion
13.51028319 rev/d
Perigee alt
1,057.6 km
Apogee alt
1,079.3 km
Semi-major
7,446.6 km
B*
6.1091e-5
RAAN
269.7554°
Arg perigee
93.3042°
Mean anomaly
266.9777°
Rev number
10,563

§ Raw data

QIANFAN-151 60393U 24140Q   26265.92974368  .00000052  00000+0  61091-4 0  99982 60393  88.9662 269.7554 0014576  93.3042 266.9777 13.51028319105636

JSON: /api/v1/satellites/60393 · /tle

For live sub-satellite position, see the globe view (requires WebGL).

§ Visibility from observer

Set your observer location to see the next 7 days of passes ≥ 10°. The values pass through the URL so the page stays shareable.

No JS? Fill the form by hand. The geolocation button needs JavaScript.